Year,Month,Day,Hour,Minute,Value (Times are PST for temperature in C)
2007,07,06,00,00,15.80
2007,07,06,00,01,15.70
2007,07,06,00,02,15.70
2007,07,06,00,03,15.70
2007,07,06,00,04,15.60
2007,07,06,00,05,15.60
2007,07,06,00,06,15.60
2007,07,06,00,07,15.60
2007,07,06,00,08,15.50
2007,07,06,00,09,15.50
2007,07,06,00,10,15.50
2007,07,06,00,11,15.40
2007,07,06,00,12,15.40
2007,07,06,00,13,15.30
2007,07,06,00,14,15.30
2007,07,06,00,15,15.30
2007,07,06,00,16,15.20
2007,07,06,00,17,15.20
2007,07,06,00,18,15.10
2007,07,06,00,19,15.10
2007,07,06,00,20,15.00
2007,07,06,00,21,15.00
2007,07,06,00,22,15.00
2007,07,06,00,23,15.00
2007,07,06,00,24,15.00
2007,07,06,00,25,15.00
2007,07,06,00,26,15.00
2007,07,06,00,27,15.00
2007,07,06,00,28,15.00
2007,07,06,00,29,15.00
2007,07,06,00,30,14.90
2007,07,06,00,31,14.80
2007,07,06,00,32,14.80
2007,07,06,00,33,14.80
2007,07,06,00,34,14.70
2007,07,06,00,35,14.70
2007,07,06,00,36,14.70
2007,07,06,00,37,14.70
2007,07,06,00,38,14.70
2007,07,06,00,39,14.70
2007,07,06,00,40,14.70
2007,07,06,00,41,14.70
2007,07,06,00,42,14.70
2007,07,06,00,43,14.70
2007,07,06,00,44,14.70
2007,07,06,00,45,14.70
2007,07,06,00,46,14.70
2007,07,06,00,47,14.70
2007,07,06,00,48,14.60
2007,07,06,00,49,14.60
2007,07,06,00,50,14.50
2007,07,06,00,51,14.50
2007,07,06,00,52,14.50
2007,07,06,00,53,14.40
2007,07,06,00,54,14.40
2007,07,06,00,55,14.40
2007,07,06,00,56,14.40
2007,07,06,00,57,14.40
2007,07,06,00,58,14.40
2007,07,06,00,59,14.30
2007,07,06,01,00,14.30
2007,07,06,01,01,14.30
2007,07,06,01,02,14.20
2007,07,06,01,03,14.10
2007,07,06,01,04,14.00
2007,07,06,01,05,14.00
2007,07,06,01,06,13.90
2007,07,06,01,07,13.90
2007,07,06,01,08,13.80
2007,07,06,01,09,13.80
2007,07,06,01,10,13.70
2007,07,06,01,11,13.70
2007,07,06,01,12,13.70
2007,07,06,01,13,13.60
2007,07,06,01,14,13.60
2007,07,06,01,15,13.60
2007,07,06,01,16,13.60
2007,07,06,01,17,13.50
2007,07,06,01,18,13.50
2007,07,06,01,19,13.50
2007,07,06,01,20,13.50
2007,07,06,01,21,13.40
2007,07,06,01,22,13.40
2007,07,06,01,23,13.40
2007,07,06,01,24,13.40
2007,07,06,01,25,13.40
2007,07,06,01,26,13.50
2007,07,06,01,27,13.50
2007,07,06,01,28,13.50
2007,07,06,01,29,13.50
2007,07,06,01,30,13.50
2007,07,06,01,31,13.50
2007,07,06,01,32,13.50
2007,07,06,01,33,13.50
2007,07,06,01,34,13.50
2007,07,06,01,35,13.50
2007,07,06,01,36,13.50
2007,07,06,01,37,13.50
2007,07,06,01,38,13.50
2007,07,06,01,39,13.40
2007,07,06,01,40,13.40
2007,07,06,01,41,13.40
2007,07,06,01,42,13.40
2007,07,06,01,43,13.40
2007,07,06,01,44,13.40
2007,07,06,01,45,13.30
2007,07,06,01,46,13.30
2007,07,06,01,47,13.30
2007,07,06,01,48,13.30
2007,07,06,01,49,13.20
2007,07,06,01,50,13.20
2007,07,06,01,51,13.20
2007,07,06,01,52,13.20
2007,07,06,01,53,13.20
2007,07,06,01,54,13.10
2007,07,06,01,55,13.10
2007,07,06,01,56,13.10
2007,07,06,01,57,13.10
2007,07,06,01,58,13.00
2007,07,06,01,59,13.00
2007,07,06,02,00,13.00
2007,07,06,02,01,13.00
2007,07,06,02,02,13.00
2007,07,06,02,03,12.90
2007,07,06,02,04,12.90
2007,07,06,02,05,12.90
2007,07,06,02,06,12.90
2007,07,06,02,07,12.90
2007,07,06,02,08,12.80
2007,07,06,02,09,12.80
2007,07,06,02,10,12.80
2007,07,06,02,11,12.70
2007,07,06,02,12,12.70
2007,07,06,02,13,12.70
2007,07,06,02,14,12.60
2007,07,06,02,15,12.60
2007,07,06,02,16,12.60
2007,07,06,02,17,12.50
2007,07,06,02,18,12.50
2007,07,06,02,19,12.40
2007,07,06,02,20,12.40
2007,07,06,02,21,12.40
2007,07,06,02,22,12.30
2007,07,06,02,23,12.30
2007,07,06,02,24,12.40
2007,07,06,02,25,12.40
2007,07,06,02,26,12.40
2007,07,06,02,27,12.40
2007,07,06,02,28,12.40
2007,07,06,02,29,12.40
2007,07,06,02,30,12.40
2007,07,06,02,31,12.40
2007,07,06,02,32,12.30
2007,07,06,02,33,12.30
2007,07,06,02,34,12.30
2007,07,06,02,35,12.30
2007,07,06,02,36,12.20
2007,07,06,02,37,12.20
2007,07,06,02,38,12.20
2007,07,06,02,39,12.20
2007,07,06,02,40,12.20
2007,07,06,02,41,12.20
2007,07,06,02,42,12.20
2007,07,06,02,43,12.20
2007,07,06,02,44,12.20
2007,07,06,02,45,12.20
2007,07,06,02,46,12.30
2007,07,06,02,47,12.30
2007,07,06,02,48,12.30
2007,07,06,02,49,12.30
2007,07,06,02,50,12.30
2007,07,06,02,51,12.20
2007,07,06,02,52,12.20
2007,07,06,02,53,12.20
2007,07,06,02,54,12.20
2007,07,06,02,55,12.20
2007,07,06,02,56,12.10
2007,07,06,02,57,12.10
2007,07,06,02,58,12.10
2007,07,06,02,59,12.10
2007,07,06,03,00,12.10
2007,07,06,03,01,12.20
2007,07,06,03,02,12.20
2007,07,06,03,03,12.20
2007,07,06,03,04,12.10
2007,07,06,03,05,12.00
2007,07,06,03,06,11.90
2007,07,06,03,07,11.80
2007,07,06,03,08,11.80
2007,07,06,03,09,11.70
2007,07,06,03,10,11.70
2007,07,06,03,11,11.70
2007,07,06,03,12,11.60
2007,07,06,03,13,11.60
2007,07,06,03,14,11.60
2007,07,06,03,15,11.50
2007,07,06,03,16,11.50
2007,07,06,03,17,11.50
2007,07,06,03,18,11.40
2007,07,06,03,19,11.40
2007,07,06,03,20,11.40
2007,07,06,03,21,11.40
2007,07,06,03,22,11.40
2007,07,06,03,23,11.40
2007,07,06,03,24,11.40
2007,07,06,03,25,11.40
2007,07,06,03,26,11.40
2007,07,06,03,27,11.30
2007,07,06,03,28,11.30
2007,07,06,03,29,11.30
2007,07,06,03,30,11.30
2007,07,06,03,31,11.30
2007,07,06,03,32,11.30
2007,07,06,03,33,11.30
2007,07,06,03,34,11.20
2007,07,06,03,35,11.20
2007,07,06,03,36,11.20
2007,07,06,03,37,11.20
2007,07,06,03,38,11.20
2007,07,06,03,39,11.20
2007,07,06,03,40,11.10
2007,07,06,03,41,11.10
2007,07,06,03,42,11.10
2007,07,06,03,43,11.10
2007,07,06,03,44,11.10
2007,07,06,03,45,11.10
2007,07,06,03,46,11.10
2007,07,06,03,47,11.10
2007,07,06,03,48,11.10
2007,07,06,03,49,11.10
2007,07,06,03,50,11.10
2007,07,06,03,51,11.10
2007,07,06,03,52,11.10
2007,07,06,03,53,11.10
2007,07,06,03,54,11.10
2007,07,06,03,55,11.10
2007,07,06,03,56,11.10
2007,07,06,03,57,11.10
2007,07,06,03,58,11.10
2007,07,06,03,59,11.00
2007,07,06,04,00,11.00
2007,07,06,04,01,10.90
2007,07,06,04,02,10.90
2007,07,06,04,03,10.80
2007,07,06,04,04,10.80
2007,07,06,04,05,10.80
2007,07,06,04,06,10.80
2007,07,06,04,07,10.80
2007,07,06,04,08,10.80
2007,07,06,04,09,10.70
2007,07,06,04,10,10.70
2007,07,06,04,11,10.70
2007,07,06,04,12,10.70
2007,07,06,04,13,10.70
2007,07,06,04,14,10.70
2007,07,06,04,15,10.70
2007,07,06,04,16,10.70
2007,07,06,04,17,10.60
2007,07,06,04,18,10.60
2007,07,06,04,19,10.50
2007,07,06,04,20,10.50
2007,07,06,04,21,10.40
2007,07,06,04,22,10.40
2007,07,06,04,23,10.30
2007,07,06,04,24,10.30
2007,07,06,04,25,10.30
2007,07,06,04,26,10.20
2007,07,06,04,27,10.20
2007,07,06,04,28,10.20
2007,07,06,04,29,10.20
2007,07,06,04,30,10.10
2007,07,06,04,31,10.10
2007,07,06,04,32,10.20
2007,07,06,04,33,10.20
2007,07,06,04,34,10.20
2007,07,06,04,35,10.20
2007,07,06,04,36,10.20
2007,07,06,04,37,10.20
2007,07,06,04,38,10.20
2007,07,06,04,39,10.30
2007,07,06,04,40,10.30
2007,07,06,04,41,10.30
2007,07,06,04,42,10.30
2007,07,06,04,43,10.30
2007,07,06,04,44,10.30
2007,07,06,04,45,10.30
2007,07,06,04,46,10.30
2007,07,06,04,47,10.30
2007,07,06,04,48,10.30
2007,07,06,04,49,10.30
2007,07,06,04,50,10.30
2007,07,06,04,51,10.30
2007,07,06,04,52,10.20
2007,07,06,04,53,10.20
2007,07,06,04,54,10.20
2007,07,06,04,55,10.10
2007,07,06,04,56,10.10
2007,07,06,04,57,10.00
2007,07,06,04,58,10.00
2007,07,06,04,59,9.90
2007,07,06,05,00,9.90
2007,07,06,05,01,9.90
2007,07,06,05,02,9.80
2007,07,06,05,03,9.80
2007,07,06,05,04,9.80
2007,07,06,05,05,9.80
2007,07,06,05,06,9.90
2007,07,06,05,07,9.90
2007,07,06,05,08,10.00
2007,07,06,05,09,10.00
2007,07,06,05,10,10.10
2007,07,06,05,11,10.00
2007,07,06,05,12,10.00
2007,07,06,05,13,10.00
2007,07,06,05,14,10.00
2007,07,06,05,15,9.90
2007,07,06,05,16,9.90
2007,07,06,05,17,9.90
2007,07,06,05,18,9.90
2007,07,06,05,19,9.90
2007,07,06,05,20,9.90
2007,07,06,05,21,9.90
2007,07,06,05,22,9.90
2007,07,06,05,23,9.90
2007,07,06,05,24,9.80
2007,07,06,05,25,9.80
2007,07,06,05,26,9.80
2007,07,06,05,27,9.80
2007,07,06,05,28,9.70
2007,07,06,05,29,9.70
2007,07,06,05,30,9.70
2007,07,06,05,31,9.70
2007,07,06,05,32,9.70
2007,07,06,05,33,9.70
2007,07,06,05,34,9.70
2007,07,06,05,35,9.70
2007,07,06,05,36,9.70
2007,07,06,05,37,9.70
2007,07,06,05,38,9.70
2007,07,06,05,39,9.70
2007,07,06,05,40,9.70
2007,07,06,05,41,9.80
2007,07,06,05,42,9.80
2007,07,06,05,43,9.80
2007,07,06,05,44,9.80
2007,07,06,05,45,9.80
2007,07,06,05,46,9.80
2007,07,06,05,47,9.80
2007,07,06,05,48,9.80
2007,07,06,05,49,9.80
2007,07,06,05,50,9.80
2007,07,06,05,51,9.80
2007,07,06,05,52,9.90
2007,07,06,05,53,9.90
2007,07,06,05,54,9.90
2007,07,06,05,55,9.90
2007,07,06,05,56,10.00
2007,07,06,05,57,10.00
2007,07,06,05,58,10.10
2007,07,06,05,59,10.10
2007,07,06,06,00,10.30
2007,07,06,06,01,10.30
2007,07,06,06,02,10.40
2007,07,06,06,03,10.50
2007,07,06,06,04,10.60
2007,07,06,06,05,10.70
2007,07,06,06,06,10.70
2007,07,06,06,07,10.80
2007,07,06,06,08,10.90
2007,07,06,06,09,10.90
2007,07,06,06,10,11.00
2007,07,06,06,11,11.10
2007,07,06,06,12,11.10
2007,07,06,06,13,11.20
2007,07,06,06,14,11.20
2007,07,06,06,15,11.20
2007,07,06,06,16,11.20
2007,07,06,06,17,11.30
2007,07,06,06,18,11.30
2007,07,06,06,19,11.30
2007,07,06,06,20,11.30
2007,07,06,06,21,11.40
2007,07,06,06,22,11.50
2007,07,06,06,23,11.60
2007,07,06,06,24,11.70
2007,07,06,06,25,11.80
2007,07,06,06,26,11.90
2007,07,06,06,27,12.00
2007,07,06,06,28,12.10
2007,07,06,06,29,12.10
2007,07,06,06,30,12.20
2007,07,06,06,31,12.30
2007,07,06,06,32,12.30
2007,07,06,06,33,12.40
2007,07,06,06,34,12.50
2007,07,06,06,35,12.50
2007,07,06,06,36,12.60
2007,07,06,06,37,12.70
2007,07,06,06,38,12.80
2007,07,06,06,39,12.80
2007,07,06,06,40,12.90
2007,07,06,06,41,13.00
2007,07,06,06,42,13.10
2007,07,06,06,43,13.10
2007,07,06,06,44,13.20
2007,07,06,06,45,13.30
2007,07,06,06,46,13.30
2007,07,06,06,47,13.40
2007,07,06,06,48,13.40
2007,07,06,06,49,13.50
2007,07,06,06,50,13.60
2007,07,06,06,51,13.70
2007,07,06,06,52,13.70
2007,07,06,06,53,13.80
2007,07,06,06,54,13.80
2007,07,06,06,55,13.80
2007,07,06,06,56,13.80
2007,07,06,06,57,13.80
2007,07,06,06,58,13.90
2007,07,06,06,59,13.90
2007,07,06,07,00,14.00
2007,07,06,07,01,14.10
2007,07,06,07,02,14.20
2007,07,06,07,03,14.30
2007,07,06,07,04,14.40
2007,07,06,07,05,14.50
2007,07,06,07,06,14.60
2007,07,06,07,07,14.60
2007,07,06,07,08,14.60
2007,07,06,07,09,14.70
2007,07,06,07,10,14.70
2007,07,06,07,11,14.80
2007,07,06,07,12,14.80
2007,07,06,07,13,14.90
2007,07,06,07,14,15.00
2007,07,06,07,15,15.00
2007,07,06,07,16,15.00
2007,07,06,07,17,15.00
2007,07,06,07,18,15.00
2007,07,06,07,19,15.00
2007,07,06,07,20,15.00
2007,07,06,07,21,15.00
2007,07,06,07,22,15.00
2007,07,06,07,23,15.00
2007,07,06,07,24,15.00
2007,07,06,07,25,15.00
2007,07,06,07,26,15.10
2007,07,06,07,27,15.10
2007,07,06,07,28,15.20
2007,07,06,07,29,15.20
2007,07,06,07,30,15.30
2007,07,06,07,31,15.30
2007,07,06,07,32,15.30
2007,07,06,07,33,15.30
2007,07,06,07,34,15.40
2007,07,06,07,35,15.40
2007,07,06,07,36,15.40
2007,07,06,07,37,15.40
2007,07,06,07,38,15.40
2007,07,06,07,39,15.40
2007,07,06,07,40,15.40
2007,07,06,07,41,15.40
2007,07,06,07,42,15.40
2007,07,06,07,43,15.40
2007,07,06,07,44,15.40
2007,07,06,07,45,15.40
2007,07,06,07,46,15.50
2007,07,06,07,47,15.50
2007,07,06,07,48,15.50
2007,07,06,07,49,15.50
2007,07,06,07,50,15.50
2007,07,06,07,51,15.50
2007,07,06,07,52,15.50
2007,07,06,07,53,15.50
2007,07,06,07,54,15.40
2007,07,06,07,55,15.50
2007,07,06,07,56,15.50
2007,07,06,07,57,15.50
2007,07,06,07,58,15.40
2007,07,06,07,59,15.40
2007,07,06,08,00,15.40
2007,07,06,08,01,15.40
2007,07,06,08,02,15.50
2007,07,06,08,03,15.50
2007,07,06,08,04,15.50
2007,07,06,08,05,15.50
2007,07,06,08,06,15.60
2007,07,06,08,07,15.70
2007,07,06,08,08,15.80
2007,07,06,08,09,15.80
2007,07,06,08,10,15.80
2007,07,06,08,11,15.80
2007,07,06,08,12,15.90
2007,07,06,08,13,15.90
2007,07,06,08,14,15.90
2007,07,06,08,15,15.90
2007,07,06,08,16,16.00
2007,07,06,08,17,16.00
2007,07,06,08,18,16.00
2007,07,06,08,19,16.10
2007,07,06,08,20,16.10
2007,07,06,08,21,16.10
2007,07,06,08,22,16.10
2007,07,06,08,23,16.20
2007,07,06,08,24,16.20
2007,07,06,08,25,16.20
2007,07,06,08,26,16.30
2007,07,06,08,27,16.30
2007,07,06,08,28,16.40
2007,07,06,08,29,16.50
2007,07,06,08,30,16.60
2007,07,06,08,31,16.60
2007,07,06,08,32,16.70
2007,07,06,08,33,16.70
2007,07,06,08,34,16.70
2007,07,06,08,35,16.70
2007,07,06,08,36,16.80
2007,07,06,08,37,16.80
2007,07,06,08,38,16.80
2007,07,06,08,39,16.90
2007,07,06,08,40,17.00
2007,07,06,08,41,17.00
2007,07,06,08,42,17.10
2007,07,06,08,43,17.10
2007,07,06,08,44,17.10
2007,07,06,08,45,17.20
2007,07,06,08,46,17.20
2007,07,06,08,47,17.20
2007,07,06,08,48,17.20
2007,07,06,08,49,17.20
2007,07,06,08,50,17.20
2007,07,06,08,51,17.20
2007,07,06,08,52,17.20
2007,07,06,08,53,17.20
2007,07,06,08,54,17.10
2007,07,06,08,55,17.10
2007,07,06,08,56,17.10
2007,07,06,08,57,17.10
2007,07,06,08,58,17.10
2007,07,06,08,59,17.20
2007,07,06,09,00,17.20
2007,07,06,09,01,17.20
2007,07,06,09,02,17.20
2007,07,06,09,03,17.30
2007,07,06,09,04,17.30
2007,07,06,09,05,17.30
2007,07,06,09,06,17.30
2007,07,06,09,07,17.20
2007,07,06,09,08,17.30
2007,07,06,09,09,17.30
2007,07,06,09,10,17.30
2007,07,06,09,11,17.20
2007,07,06,09,12,17.20
2007,07,06,09,13,17.20
2007,07,06,09,14,17.30
2007,07,06,09,15,17.30
2007,07,06,09,16,17.40
2007,07,06,09,17,17.50
2007,07,06,09,18,17.60
2007,07,06,09,19,17.70
2007,07,06,09,20,17.80
2007,07,06,09,21,17.80
2007,07,06,09,22,17.90
2007,07,06,09,23,17.90
2007,07,06,09,24,18.00
2007,07,06,09,25,18.20
2007,07,06,09,26,18.20
2007,07,06,09,27,18.30
2007,07,06,09,28,18.30
2007,07,06,09,29,18.40
2007,07,06,09,30,18.40
2007,07,06,09,31,18.40
2007,07,06,09,32,18.40
2007,07,06,09,33,18.40
2007,07,06,09,34,18.50
2007,07,06,09,35,18.50
2007,07,06,09,36,18.60
2007,07,06,09,37,18.60
2007,07,06,09,38,18.60
2007,07,06,09,39,18.70
2007,07,06,09,40,18.70
2007,07,06,09,41,18.70
2007,07,06,09,42,18.80
2007,07,06,09,43,18.80
2007,07,06,09,44,18.90
2007,07,06,09,45,19.00
2007,07,06,09,46,19.00
2007,07,06,09,47,19.10
2007,07,06,09,48,19.10
2007,07,06,09,49,19.30
2007,07,06,09,50,19.40
2007,07,06,09,51,19.60
2007,07,06,09,52,19.70
2007,07,06,09,53,19.80
2007,07,06,09,54,19.80
2007,07,06,09,55,19.80
2007,07,06,09,56,19.80
2007,07,06,09,57,19.70
2007,07,06,09,58,19.80
2007,07,06,09,59,19.80
2007,07,06,10,00,19.80
2007,07,06,10,01,19.90
2007,07,06,10,02,19.80
2007,07,06,10,03,19.80
2007,07,06,10,04,20.00
2007,07,06,10,05,20.10
2007,07,06,10,06,20.20
2007,07,06,10,07,20.30
2007,07,06,10,08,20.40
2007,07,06,10,09,20.60
2007,07,06,10,10,20.70
2007,07,06,10,11,20.80
2007,07,06,10,12,20.80
2007,07,06,10,13,20.80
2007,07,06,10,14,20.80
2007,07,06,10,15,20.80
2007,07,06,10,16,20.70
2007,07,06,10,17,20.70
2007,07,06,10,18,20.70
2007,07,06,10,19,20.70
2007,07,06,10,20,20.80
2007,07,06,10,21,20.80
2007,07,06,10,22,20.80
2007,07,06,10,23,20.80
2007,07,06,10,24,20.80
2007,07,06,10,25,20.80
2007,07,06,10,26,20.80
2007,07,06,10,27,20.80
2007,07,06,10,28,20.80
2007,07,06,10,29,20.80
2007,07,06,10,30,20.80
2007,07,06,10,31,20.70
2007,07,06,10,32,20.70
2007,07,06,10,33,20.60
2007,07,06,10,34,20.50
2007,07,06,10,35,20.60
2007,07,06,10,36,20.60
2007,07,06,10,37,20.80
2007,07,06,10,38,20.80
2007,07,06,10,39,20.80
2007,07,06,10,40,20.70
2007,07,06,10,41,20.60
2007,07,06,10,42,20.50
2007,07,06,10,43,20.40
2007,07,06,10,44,20.40
2007,07,06,10,45,20.40
2007,07,06,10,46,20.40
2007,07,06,10,47,20.40
2007,07,06,10,48,20.40
2007,07,06,10,49,20.40
2007,07,06,10,50,20.50
2007,07,06,10,51,20.60
2007,07,06,10,52,20.70
2007,07,06,10,53,20.70
2007,07,06,10,54,20.80
2007,07,06,10,55,20.80
2007,07,06,10,56,20.90
2007,07,06,10,57,20.90
2007,07,06,10,58,21.00
2007,07,06,10,59,21.10
2007,07,06,11,00,21.20
2007,07,06,11,01,21.30
2007,07,06,11,02,21.30
2007,07,06,11,03,21.30
2007,07,06,11,04,21.30
2007,07,06,11,05,21.30
2007,07,06,11,06,21.20
2007,07,06,11,07,21.10
2007,07,06,11,08,21.00
2007,07,06,11,09,20.90
2007,07,06,11,10,21.00
2007,07,06,11,11,21.00
2007,07,06,11,12,21.00
2007,07,06,11,13,21.00
2007,07,06,11,14,21.00
2007,07,06,11,15,21.10
2007,07,06,11,16,21.20
2007,07,06,11,17,21.30
2007,07,06,11,18,21.40
2007,07,06,11,19,21.50
2007,07,06,11,20,21.60
2007,07,06,11,21,21.70
2007,07,06,11,22,21.60
2007,07,06,11,23,21.70
2007,07,06,11,24,21.70
2007,07,06,11,25,21.80
2007,07,06,11,26,21.80
2007,07,06,11,27,21.70
2007,07,06,11,28,21.50
2007,07,06,11,29,21.60
2007,07,06,11,30,21.70
2007,07,06,11,31,21.70
2007,07,06,11,32,21.60
2007,07,06,11,33,21.60
2007,07,06,11,34,21.60
2007,07,06,11,35,21.60
2007,07,06,11,36,21.70
2007,07,06,11,37,21.70
2007,07,06,11,38,21.70
2007,07,06,11,39,21.50
2007,07,06,11,40,21.40
2007,07,06,11,41,21.30
2007,07,06,11,42,21.40
2007,07,06,11,43,21.70
2007,07,06,11,44,21.80
2007,07,06,11,45,21.90
2007,07,06,11,46,22.00
2007,07,06,11,47,22.20
2007,07,06,11,48,22.40
2007,07,06,11,49,22.50
2007,07,06,11,50,22.50
2007,07,06,11,51,22.40
2007,07,06,11,52,22.40
2007,07,06,11,53,22.40
2007,07,06,11,54,22.50
2007,07,06,11,55,22.50
2007,07,06,11,56,22.60
2007,07,06,11,57,22.70
2007,07,06,11,58,22.80
2007,07,06,11,59,22.90
2007,07,06,12,00,22.80
2007,07,06,12,01,22.80
2007,07,06,12,02,22.70
2007,07,06,12,03,22.60
2007,07,06,12,04,22.50
2007,07,06,12,05,22.40
2007,07,06,12,06,22.40
2007,07,06,12,07,22.50
2007,07,06,12,08,22.60
2007,07,06,12,09,22.60
2007,07,06,12,10,22.70
2007,07,06,12,11,22.70
2007,07,06,12,12,22.80
2007,07,06,12,13,22.80
2007,07,06,12,14,22.70
2007,07,06,12,15,22.70
2007,07,06,12,16,22.70
2007,07,06,12,17,22.50
2007,07,06,12,18,22.50
2007,07,06,12,19,22.40
2007,07,06,12,20,22.40
2007,07,06,12,21,22.50
2007,07,06,12,22,22.50
2007,07,06,12,23,22.60
2007,07,06,12,24,22.60
2007,07,06,12,25,22.60
2007,07,06,12,26,22.60
2007,07,06,12,27,22.60
2007,07,06,12,28,22.50
2007,07,06,12,29,22.50
2007,07,06,12,30,22.40
2007,07,06,12,31,22.40
2007,07,06,12,32,22.40
2007,07,06,12,33,22.30
2007,07,06,12,34,22.30
2007,07,06,12,35,22.40
2007,07,06,12,36,22.50
2007,07,06,12,37,22.40
2007,07,06,12,38,22.40
2007,07,06,12,39,22.50
2007,07,06,12,40,22.60
2007,07,06,12,41,22.70
2007,07,06,12,42,22.80
2007,07,06,12,43,22.70
2007,07,06,12,44,22.70
2007,07,06,12,45,22.70
2007,07,06,12,46,22.60
2007,07,06,12,47,22.70
2007,07,06,12,48,22.70
2007,07,06,12,49,22.60
2007,07,06,12,50,22.50
2007,07,06,12,51,22.40
2007,07,06,12,52,22.40
2007,07,06,12,53,22.40
2007,07,06,12,54,22.40
2007,07,06,12,55,22.60
2007,07,06,12,56,22.60
2007,07,06,12,57,22.60
2007,07,06,12,58,22.70
2007,07,06,12,59,22.70
2007,07,06,13,00,22.90
2007,07,06,13,01,23.00
2007,07,06,13,02,22.90
2007,07,06,13,03,22.90
2007,07,06,13,04,22.80
2007,07,06,13,05,22.70
2007,07,06,13,06,22.70
2007,07,06,13,07,22.90
2007,07,06,13,08,23.10
2007,07,06,13,09,23.30
2007,07,06,13,10,23.30
2007,07,06,13,11,23.20
2007,07,06,13,12,23.20
2007,07,06,13,13,23.00
2007,07,06,13,14,22.90
2007,07,06,13,15,22.90
2007,07,06,13,16,22.90
2007,07,06,13,17,22.90
2007,07,06,13,18,22.90
2007,07,06,13,19,23.00
2007,07,06,13,20,23.00
2007,07,06,13,21,23.10
2007,07,06,13,22,23.00
2007,07,06,13,23,22.90
2007,07,06,13,24,23.10
2007,07,06,13,25,23.10
2007,07,06,13,26,23.00
2007,07,06,13,27,23.00
2007,07,06,13,28,22.90
2007,07,06,13,29,22.90
2007,07,06,13,30,23.00
2007,07,06,13,31,23.00
2007,07,06,13,32,22.80
2007,07,06,13,33,22.80
2007,07,06,13,34,22.70
2007,07,06,13,35,22.80
2007,07,06,13,36,23.00
2007,07,06,13,37,23.10
2007,07,06,13,38,23.10
2007,07,06,13,39,23.20
2007,07,06,13,40,23.30
2007,07,06,13,41,23.20
2007,07,06,13,42,23.10
2007,07,06,13,43,23.10
2007,07,06,13,44,23.10
2007,07,06,13,45,23.20
2007,07,06,13,46,23.30
2007,07,06,13,47,23.20
2007,07,06,13,48,23.20
2007,07,06,13,49,23.10
2007,07,06,13,50,23.10
2007,07,06,13,51,23.20
2007,07,06,13,52,23.30
2007,07,06,13,53,23.30
2007,07,06,13,54,23.30
2007,07,06,13,55,23.40
2007,07,06,13,56,23.40
2007,07,06,13,57,23.40
2007,07,06,13,58,23.40
2007,07,06,13,59,23.50
2007,07,06,14,00,23.50
2007,07,06,14,01,23.50
2007,07,06,14,02,23.50
2007,07,06,14,03,23.40
2007,07,06,14,04,23.40
2007,07,06,14,05,23.40
2007,07,06,14,06,23.40
2007,07,06,14,07,23.50
2007,07,06,14,08,23.50
2007,07,06,14,09,23.60
2007,07,06,14,10,23.70
2007,07,06,14,11,23.70
2007,07,06,14,12,23.50
2007,07,06,14,13,23.50
2007,07,06,14,14,23.60
2007,07,06,14,15,23.70
2007,07,06,14,16,23.70
2007,07,06,14,17,23.70
2007,07,06,14,18,23.70
2007,07,06,14,19,23.80
2007,07,06,14,20,23.80
2007,07,06,14,21,23.80
2007,07,06,14,22,23.80
2007,07,06,14,23,23.90
2007,07,06,14,24,23.90
2007,07,06,14,25,23.80
2007,07,06,14,26,23.80
2007,07,06,14,27,23.60
2007,07,06,14,28,23.50
2007,07,06,14,29,23.40
2007,07,06,14,30,23.40
2007,07,06,14,31,23.30
2007,07,06,14,32,23.30
2007,07,06,14,33,23.30
2007,07,06,14,34,23.30
2007,07,06,14,35,23.30
2007,07,06,14,36,23.40
2007,07,06,14,37,23.40
2007,07,06,14,38,23.50
2007,07,06,14,39,23.50
2007,07,06,14,40,23.40
2007,07,06,14,41,23.30
2007,07,06,14,42,23.30
2007,07,06,14,43,23.30
2007,07,06,14,44,23.30
2007,07,06,14,45,23.30
2007,07,06,14,46,23.30
2007,07,06,14,47,23.40
2007,07,06,14,48,23.60
2007,07,06,14,49,23.60
2007,07,06,14,50,23.70
2007,07,06,14,51,23.70
2007,07,06,14,52,23.60
2007,07,06,14,53,23.60
2007,07,06,14,54,23.60
2007,07,06,14,55,23.60
2007,07,06,14,56,23.60
2007,07,06,14,57,23.60
2007,07,06,14,58,23.50
2007,07,06,14,59,23.40
2007,07,06,15,00,23.40
2007,07,06,15,01,23.40
2007,07,06,15,02,23.40
2007,07,06,15,03,23.40
2007,07,06,15,04,23.40
2007,07,06,15,05,23.50
2007,07,06,15,06,23.60
2007,07,06,15,07,23.60
2007,07,06,15,08,23.50
2007,07,06,15,09,23.40
2007,07,06,15,10,23.30
2007,07,06,15,11,23.10
2007,07,06,15,12,23.10
2007,07,06,15,13,23.00
2007,07,06,15,14,22.90
2007,07,06,15,15,22.80
2007,07,06,15,16,22.80
2007,07,06,15,17,22.70
2007,07,06,15,18,22.60
2007,07,06,15,19,22.60
2007,07,06,15,20,22.60
2007,07,06,15,21,22.60
2007,07,06,15,22,22.60
2007,07,06,15,23,22.70
2007,07,06,15,24,22.70
2007,07,06,15,25,22.70
2007,07,06,15,26,22.80
2007,07,06,15,27,22.80
2007,07,06,15,28,22.80
2007,07,06,15,29,22.90
2007,07,06,15,30,22.90
2007,07,06,15,31,22.80
2007,07,06,15,32,22.80
2007,07,06,15,33,22.70
2007,07,06,15,34,22.70
2007,07,06,15,35,22.70
2007,07,06,15,36,22.70
2007,07,06,15,37,22.60
2007,07,06,15,38,22.40
2007,07,06,15,39,22.30
2007,07,06,15,40,22.20
2007,07,06,15,41,22.10
2007,07,06,15,42,22.10
2007,07,06,15,43,22.20
2007,07,06,15,44,22.20
2007,07,06,15,45,22.10
2007,07,06,15,46,22.20
2007,07,06,15,47,22.20
2007,07,06,15,48,22.20
2007,07,06,15,49,22.20
2007,07,06,15,50,22.20
2007,07,06,15,51,22.20
2007,07,06,15,52,22.20
2007,07,06,15,53,22.30
2007,07,06,15,54,22.30
2007,07,06,15,55,22.20
2007,07,06,15,56,22.20
2007,07,06,15,57,22.20
2007,07,06,15,58,22.20
2007,07,06,15,59,22.10
2007,07,06,16,00,21.90
2007,07,06,16,01,21.80
2007,07,06,16,02,21.70
2007,07,06,16,03,21.60
2007,07,06,16,04,21.50
2007,07,06,16,05,21.50
2007,07,06,16,06,21.50
2007,07,06,16,07,21.60
2007,07,06,16,08,21.70
2007,07,06,16,09,21.70
2007,07,06,16,10,21.70
2007,07,06,16,11,21.70
2007,07,06,16,12,21.70
2007,07,06,16,13,21.70
2007,07,06,16,14,21.70
2007,07,06,16,15,21.70
2007,07,06,16,16,21.70
2007,07,06,16,17,21.70
2007,07,06,16,18,21.80
2007,07,06,16,19,21.80
2007,07,06,16,20,21.80
2007,07,06,16,21,21.80
2007,07,06,16,22,21.80
2007,07,06,16,23,21.90
2007,07,06,16,24,22.00
2007,07,06,16,25,22.10
2007,07,06,16,26,22.20
2007,07,06,16,27,22.20
2007,07,06,16,28,22.20
2007,07,06,16,29,22.30
2007,07,06,16,30,22.40
2007,07,06,16,31,22.40
2007,07,06,16,32,22.60
2007,07,06,16,33,22.70
2007,07,06,16,34,22.80
2007,07,06,16,35,22.80
2007,07,06,16,36,22.90
2007,07,06,16,37,23.00
2007,07,06,16,38,23.00
2007,07,06,16,39,23.10
2007,07,06,16,40,23.20
2007,07,06,16,41,23.30
2007,07,06,16,42,23.40
2007,07,06,16,43,23.40
2007,07,06,16,44,23.30
2007,07,06,16,45,23.30
2007,07,06,16,46,23.30
2007,07,06,16,47,23.30
2007,07,06,16,48,23.30
2007,07,06,16,49,23.30
2007,07,06,16,50,23.30
2007,07,06,16,51,23.30
2007,07,06,16,52,23.30
2007,07,06,16,53,23.40
2007,07,06,16,54,23.30
2007,07,06,16,55,23.30
2007,07,06,16,56,23.30
2007,07,06,16,57,23.40
2007,07,06,16,58,23.40
2007,07,06,16,59,23.30
2007,07,06,17,00,23.30
2007,07,06,17,01,23.40
2007,07,06,17,02,23.40
2007,07,06,17,03,23.40
2007,07,06,17,04,23.40
2007,07,06,17,05,23.50
2007,07,06,17,06,23.50
2007,07,06,17,07,23.50
2007,07,06,17,08,23.50
2007,07,06,17,09,23.50
2007,07,06,17,10,23.50
2007,07,06,17,11,23.50
2007,07,06,17,12,23.50
2007,07,06,17,13,23.40
2007,07,06,17,14,23.30
2007,07,06,17,15,23.20
2007,07,06,17,16,23.10
2007,07,06,17,17,22.90
2007,07,06,17,18,22.90
2007,07,06,17,19,22.80
2007,07,06,17,20,22.80
2007,07,06,17,21,22.70